カタログに戻る

STARLINK-1807

運用中通信VLEO
NORAD 46706·PAYLOAD·🇺🇸 United States

打ち上げ Oct 18, 2020 から Cape Canaveral Space Force Station

Loading…

次のパス (今後24時間)

TLE

最新Source: CelesTrak SupGP

元期: Sep 15, 2026, 01:41 UTC

1 46706C 20073AN  26258.07062500  .00010651  00000+0  27753-3 0  2585
2 46706  53.0546  65.3014 0000892  93.2601 277.9707 15.38285063    18

AllMySatでSTARLINK-1807をリアルタイム追跡

Download on the App Store